Terminal Aerodrome Forecast
Issued by NWS

Home | Current Version | Previous Version | Text Only | Print | Product List | Glossary On
Versions: 1 2 3 4 5 6 7 8 9 10 11 12 13 14 15 16 17 18 19 20 21 22 23 24 25 26 27 28 29 30 31 32 33 34 35 36 37 38 39 40 41 42 43 44 45 46 47 48 49 50
000
FTUS45 KBOU 091746
TAFBJC
TAF
KBJC 091746Z 0918/1018 20010KT P6SM FEW035 FEW070 SCT220
     FM092100 13005KT P6SM FEW080 SCT220
     FM100200 25005KT P6SM FEW080 SCT220
     FM100700 31005KT P6SM FEW120 SCT220
     FM101400 VRB05KT P6SM FEW120 SCT220=

USA.gov is the U.S. government's official web portal to all federal, state and local government web resources and services.